• In Sweden
  • List of Countries
  • For 7 days
  • Water Temperature
  • Satellite Maps
  • Weather Map
  • Weather Widgets
  • user-avatar
    Login

    Hourly Weather Novoilinka

    Today, 23 May, Wednesday

    Time Temperature Precipitation Wind Pressure Humidity
    00:00 +3°C° 0 mm 1 mps 744 mmHg 76%
    01:00 +3°C° 0 mm 1 mps 744 mmHg 77%
    02:00 +2°C° 0 mm 1 mps 744 mmHg 78%
    03:00 +2°C° 0 mm 1 mps 744 mmHg 79%
    04:00 +3°C° 0 mm 1 mps 744 mmHg 75%
    05:00 +4°C° 0 mm 1 mps 744 mmHg 71%
    06:00 +5°C° 0 mm 1 mps 744 mmHg 67%
    07:00 +7°C° 0 mm 1 mps 745 mmHg 61%
    08:00 +8°C° 0 mm 2 mps 745 mmHg 54%
    09:00 +9°C° 0 mm 2 mps 745 mmHg 47%
    10:00 +10°C° 0 mm 3 mps 745 mmHg 47%
    11:00 +10°C° 0 mm 4 mps 746 mmHg 47%
    12:00 +9°C° 0 mm 5 mps 746 mmHg 49%
    13:00 +8°C° 0.1 mm 5 mps 747 mmHg 52%
    14:00 +8°C° 0.1 mm 6 mps 747 mmHg 55%
    15:00 +7°C° 0.1 mm 6 mps 748 mmHg 58%
    16:00 +7°C° 0.1 mm 6 mps 748 mmHg 55%
    17:00 +7°C° 0.1 mm 6 mps 749 mmHg 52%
    18:00 +5°C° 0.1 mm 6 mps 749 mmHg 49%
    19:00 +5°C° 0 mm 5 mps 750 mmHg 51%
    20:00 +3°C° 0 mm 5 mps 750 mmHg 53%
    21:00 +4°C° 0 mm 4 mps 751 mmHg 55%
    22:00 +3°C° 0 mm 4 mps 751 mmHg 59%
    23:00 +1°C° 0 mm 4 mps 751 mmHg 62%

    Tomorrow, 24 May, Thursday

    Time Temperature Precipitation Wind Pressure Humidity
    00:00 0°C° 0 mm 4 mps 752 mmHg 66%
    01:00 -1°C° 0 mm 4 mps 752 mmHg 69%
    02:00 -1°C° 0 mm 4 mps 753 mmHg 73%
    03:00 -2°C° 0 mm 4 mps 753 mmHg 76%
    04:00 -2°C° 0 mm 4 mps 753 mmHg 75%
    05:00 -2°C° 0 mm 4 mps 754 mmHg 73%
    06:00 -1°C° 0 mm 4 mps 754 mmHg 72%
    07:00 +1°C° 0 mm 3 mps 754 mmHg 64%
    08:00 +2°C° 0 mm 3 mps 754 mmHg 57%
    09:00 +4°C° 0 mm 3 mps 755 mmHg 50%
    10:00 +5°C° 0 mm 3 mps 754 mmHg 45%
    11:00 +7°C° 0 mm 3 mps 754 mmHg 41%
    12:00 +9°C° 0 mm 3 mps 754 mmHg 36%
    13:00 +10°C° 0 mm 3 mps 753 mmHg 33%
    14:00 +11°C° 0 mm 3 mps 752 mmHg 29%
    15:00 +12°C° 0 mm 3 mps 752 mmHg 26%
    16:00 +12°C° 0 mm 4 mps 752 mmHg 28%
    17:00 +12°C° 0 mm 4 mps 751 mmHg 29%
    18:00 +13°C° 0 mm 4 mps 751 mmHg 30%
    19:00 +12°C° 0 mm 4 mps 751 mmHg 37%
    20:00 +10°C° 0 mm 4 mps 750 mmHg 45%
    21:00 +8°C° 0 mm 4 mps 750 mmHg 52%
    22:00 +7°C° 0.2 mm 4 mps 750 mmHg 61%
    23:00 +6°C° 0.2 mm 4 mps 749 mmHg 71%

    Day after tomorrow, 25 May, Friday

    Time Temperature Precipitation Wind Pressure Humidity
    00:00 +6°C° 0.2 mm 4 mps 749 mmHg 80%
    01:00 +5°C° 0.4 mm 4 mps 748 mmHg 83%
    02:00 +5°C° 0.4 mm 4 mps 748 mmHg 86%
    03:00 +5°C° 0.4 mm 4 mps 747 mmHg 89%
    04:00 +5°C° 0.2 mm 4 mps 747 mmHg 90%
    05:00 +5°C° 0.2 mm 4 mps 747 mmHg 91%
    06:00 +5°C° 0.2 mm 4 mps 747 mmHg 92%
    07:00 +5°C° 0.5 mm 3 mps 747 mmHg 92%
    08:00 +7°C° 0.5 mm 3 mps 748 mmHg 92%
    09:00 +7°C° 0.5 mm 3 mps 748 mmHg 93%
    10:00 +7°C° 0.4 mm 3 mps 748 mmHg 89%
    11:00 +7°C° 0.4 mm 3 mps 749 mmHg 85%
    12:00 +7°C° 0.4 mm 3 mps 749 mmHg 81%
    13:00 +9°C° 0 mm 3 mps 750 mmHg 70%
    14:00 +10°C° 0 mm 3 mps 750 mmHg 59%
    15:00 +12°C° 0 mm 3 mps 750 mmHg 48%
    16:00 +12°C° 0 mm 3 mps 751 mmHg 43%
    17:00 +12°C° 0 mm 3 mps 751 mmHg 39%
    18:00 +12°C° 0 mm 3 mps 752 mmHg 34%
    19:00 +11°C° 0 mm 3 mps 752 mmHg 38%
    20:00 +9°C° 0 mm 2 mps 753 mmHg 42%
    21:00 +7°C° 0 mm 2 mps 753 mmHg 46%
    22:00 +6°C° 0 mm 2 mps 753 mmHg 49%
    23:00 +5°C° 0 mm 2 mps 753 mmHg 51%

    26 May, Saturday

    Time Temperature Precipitation Wind Pressure Humidity
    00:00 +3°C° 0 mm 2 mps 754 mmHg 54%
    01:00 +3°C° 0 mm 2 mps 754 mmHg 55%
    02:00 +2°C° 0 mm 2 mps 754 mmHg 56%
    03:00 +3°C° 0 mm 1 mps 754 mmHg 58%
    04:00 +4°C° 0 mm 1 mps 754 mmHg 57%
    05:00 +4°C° 0 mm 1 mps 755 mmHg 56%
    06:00 +5°C° 0 mm 1 mps 755 mmHg 55%
    07:00 +7°C° 0 mm 1 mps 755 mmHg 49%
    08:00 +9°C° 0 mm 1 mps 755 mmHg 43%
    09:00 +11°C° 0 mm 1 mps 755 mmHg 38%
    10:00 +12°C° 0 mm 1 mps 755 mmHg 34%
    11:00 +14°C° 0 mm 1 mps 755 mmHg 30%
    12:00 +15°C° 0 mm 1 mps 755 mmHg 27%
    13:00 +15°C° 0 mm 1 mps 755 mmHg 26%
    14:00 +15°C° 0 mm 1 mps 754 mmHg 26%
    15:00 +15°C° 0 mm 1 mps 754 mmHg 26%
    16:00 +14°C° 0 mm 1 mps 754 mmHg 27%
    17:00 +14°C° 0 mm 1 mps 754 mmHg 28%
    18:00 +13°C° 0 mm 1 mps 754 mmHg 29%
    19:00 +12°C° 0 mm 1 mps 754 mmHg 36%
    20:00 +11°C° 0 mm 1 mps 754 mmHg 42%
    21:00 +9°C° 0 mm 1 mps 754 mmHg 49%
    22:00 +8°C° 0 mm 1 mps 754 mmHg 54%
    23:00 +7°C° 0 mm 1 mps 755 mmHg 59%

    27 May, Sunday

    Time Temperature Precipitation Wind Pressure Humidity
    00:00 +5°C° 0 mm 2 mps 755 mmHg 64%
    01:00 +4°C° 0 mm 2 mps 755 mmHg 68%
    02:00 +3°C° 0 mm 2 mps 755 mmHg 72%
    03:00 +3°C° 0 mm 2 mps 755 mmHg 77%
    04:00 +4°C° 0 mm 2 mps 756 mmHg 73%
    05:00 +6°C° 0 mm 1 mps 756 mmHg 69%
    06:00 +7°C° 0 mm 1 mps 756 mmHg 65%
    07:00 +7°C° 0 mm 2 mps 756 mmHg 57%
    08:00 +9°C° 0 mm 2 mps 757 mmHg 48%
    09:00 +10°C° 0 mm 2 mps 757 mmHg 40%
    10:00 +11°C° 0 mm 3 mps 757 mmHg 37%
    11:00 +12°C° 0 mm 3 mps 757 mmHg 33%
    12:00 +13°C° 0 mm 3 mps 756 mmHg 29%
    13:00 +14°C° 0 mm 4 mps 756 mmHg 28%
    14:00 +15°C° 0 mm 4 mps 756 mmHg 27%
    15:00 +15°C° 0 mm 4 mps 755 mmHg 26%
    16:00 +17°C° 0 mm 4 mps 755 mmHg 27%
    17:00 +17°C° 0 mm 4 mps 755 mmHg 28%
    18:00 +17°C° 0 mm 4 mps 755 mmHg 28%
    19:00 +14°C° 0 mm 3 mps 755 mmHg 35%
    20:00 +12°C° 0 mm 3 mps 755 mmHg 42%
    21:00 +10°C° 0 mm 2 mps 755 mmHg 48%
    22:00 +9°C° 0 mm 2 mps 755 mmHg 50%
    23:00 +8°C° 0 mm 2 mps 754 mmHg 53%

    28 May, Monday

    Time Temperature Precipitation Wind Pressure Humidity
    00:00 +7°C° 0 mm 2 mps 754 mmHg 55%
    01:00 +7°C° 0 mm 2 mps 754 mmHg 58%
    02:00 +6°C° 0 mm 2 mps 754 mmHg 60%
    03:00 +6°C° 0 mm 2 mps 754 mmHg 63%
    04:00 +7°C° 0 mm 2 mps 754 mmHg 61%
    05:00 +7°C° 0 mm 2 mps 754 mmHg 60%
    06:00 +9°C° 0 mm 1 mps 754 mmHg 58%
    07:00 +12°C° 0 mm 2 mps 753 mmHg 52%
    08:00 +14°C° 0 mm 2 mps 753 mmHg 45%
    09:00 +16°C° 0 mm 2 mps 753 mmHg 39%
    10:00 +17°C° 0.1 mm 2 mps 752 mmHg 40%
    11:00 +17°C° 0.1 mm 3 mps 751 mmHg 41%
    12:00 +17°C° 0.1 mm 3 mps 751 mmHg 43%
    13:00 +16°C° 0.3 mm 3 mps 750 mmHg 52%
    14:00 +13°C° 0.3 mm 3 mps 749 mmHg 62%
    15:00 +12°C° 0.3 mm 3 mps 749 mmHg 71%
    16:00 +13°C° 0.1 mm 4 mps 748 mmHg 67%
    17:00 +13°C° 0.1 mm 4 mps 747 mmHg 63%
    18:00 +14°C° 0.1 mm 5 mps 747 mmHg 59%
    19:00 +13°C° 0 mm 5 mps 746 mmHg 61%
    20:00 +13°C° 0 mm 4 mps 745 mmHg 63%
    21:00 +12°C° 0 mm 4 mps 744 mmHg 65%
    22:00 +12°C° 0.1 mm 4 mps 743 mmHg 68%
    23:00 +12°C° 0.1 mm 5 mps 741 mmHg 71%
    Show more